Location: Gleizolles
(44.4833°N, 6.7667°E)
Time: 08:35:18
(UTC+00:00)

FALCONSAT 3 - Visible Passes

Search period start: 26 November 2022 00:00
Search period end: 06 December 2022 00:00
Orbit: 341 x 352 km, 35.4° (Epoch: 25 November)

Date Brightness Start Highest point End Pass type
(mag) Time Alt. Az. Time Alt. Az. Time Alt. Az.
26 Nov ? 17:31:39 10° S 17:32:43 11° SSE 17:33:18 11° SSE visible
27 Nov ? 17:54:12 10° SSW 17:55:35 14° S 17:55:35 14° S visible
28 Nov ? 16:41:53 10° SSW 16:43:08 12° S 16:44:24 10° SE visible
28 Nov ? 18:17:13 10° SW 18:17:40 12° SSW 18:17:40 12° SSW visible
29 Nov ? 17:04:11 10° SSW 17:05:53 14° S 17:07:35 10° SE visible
30 Nov ? 17:26:54 10° SW 17:28:26 13° S 17:29:58 10° SSE visible
02 Dec ? 16:35:45 10° SW 16:37:10 13° S 16:38:35 10° SSE visible
